When you browse on this site, cookies collect data to enhance your experience and personalize the content and advertising you see.
Visit our Privacy Policy to learn more. By continuing to use the site, you agree to this use of cookies and data.
  • In Schweiz
  • Länderverzeichnis
  • Für 7 Tage
  • Wassertemperatur
  • Wetterkarte
  • Widgets
  • user-avatar
    Anmelden

    Stündliche Wetter Florianópolis

    Heute, 3 April, Freitag

    Zeit Temperatur Niederschläge Wind Luftdruck Luftfeuchtigkeit
    00:00 +23°C° 0 mm 2 m/S 755 mmHg 89%
    01:00 +20°C° 0 mm 2 m/S 755 mmHg 82%
    02:00 +19°C° 0 mm 3 m/S 755 mmHg 76%
    03:00 +18°C° 0 mm 3 m/S 755 mmHg 70%
    04:00 +18°C° 0 mm 3 m/S 755 mmHg 64%
    05:00 +18°C° 0 mm 3 m/S 755 mmHg 59%
    06:00 +18°C° 0 mm 3 m/S 755 mmHg 53%
    07:00 +19°C° 0 mm 3 m/S 755 mmHg 51%
    08:00 +20°C° 0 mm 4 m/S 755 mmHg 49%
    09:00 +21°C° 0 mm 4 m/S 756 mmHg 46%
    10:00 +24°C° 0 mm 3 m/S 756 mmHg 45%
    11:00 +26°C° 0 mm 3 m/S 756 mmHg 43%
    12:00 +28°C° 0 mm 2 m/S 756 mmHg 41%
    13:00 +28°C° 0 mm 3 m/S 756 mmHg 42%
    14:00 +29°C° 0 mm 4 m/S 756 mmHg 43%
    15:00 +29°C° 0 mm 5 m/S 756 mmHg 44%
    16:00 +27°C° 0 mm 5 m/S 756 mmHg 50%
    17:00 +26°C° 0 mm 5 m/S 756 mmHg 55%
    18:00 +23°C° 0 mm 5 m/S 757 mmHg 61%
    19:00 +22°C° 0 mm 5 m/S 757 mmHg 64%
    20:00 +21°C° 0 mm 5 m/S 758 mmHg 68%
    21:00 +20°C° 0 mm 5 m/S 758 mmHg 72%
    22:00 +20°C° 0 mm 5 m/S 758 mmHg 73%
    23:00 +19°C° 0 mm 4 m/S 758 mmHg 75%

    Morgen, 4 April, Samstag

    Zeit Temperatur Niederschläge Wind Luftdruck Luftfeuchtigkeit
    00:00 +19°C° 0 mm 4 m/S 758 mmHg 76%
    01:00 +18°C° 0 mm 3 m/S 759 mmHg 76%
    02:00 +18°C° 0 mm 3 m/S 759 mmHg 76%
    03:00 +18°C° 0 mm 2 m/S 759 mmHg 76%
    04:00 +18°C° 0 mm 2 m/S 759 mmHg 75%
    05:00 +18°C° 0 mm 2 m/S 759 mmHg 75%
    06:00 +18°C° 0 mm 2 m/S 759 mmHg 75%
    07:00 +19°C° 0 mm 2 m/S 760 mmHg 69%
    08:00 +21°C° 0 mm 2 m/S 760 mmHg 62%
    09:00 +24°C° 0 mm 2 m/S 761 mmHg 56%
    10:00 +25°C° 0 mm 2 m/S 760 mmHg 52%
    11:00 +27°C° 0 mm 2 m/S 760 mmHg 48%
    12:00 +28°C° 0 mm 2 m/S 760 mmHg 44%
    13:00 +27°C° 0 mm 3 m/S 760 mmHg 47%
    14:00 +27°C° 0 mm 3 m/S 759 mmHg 51%
    15:00 +27°C° 0 mm 4 m/S 759 mmHg 55%
    16:00 +25°C° 0 mm 3 m/S 759 mmHg 62%
    17:00 +24°C° 0 mm 3 m/S 759 mmHg 69%
    18:00 +22°C° 0 mm 3 m/S 760 mmHg 76%
    19:00 +21°C° 0 mm 3 m/S 760 mmHg 78%
    20:00 +21°C° 0 mm 2 m/S 761 mmHg 79%
    21:00 +21°C° 0 mm 2 m/S 761 mmHg 80%
    22:00 +21°C° 0 mm 1 m/S 761 mmHg 81%
    23:00 +21°C° 0 mm 1 m/S 761 mmHg 83%

    übermorgen, 5 April, Sonntag

    Zeit Temperatur Niederschläge Wind Luftdruck Luftfeuchtigkeit
    00:00 +21°C° 0 mm 1 m/S 761 mmHg 84%
    01:00 +21°C° 0 mm 1 m/S 761 mmHg 83%
    02:00 +21°C° 0 mm 1 m/S 761 mmHg 82%
    03:00 +21°C° 0 mm 1 m/S 761 mmHg 82%
    04:00 +21°C° 0 mm 1 m/S 761 mmHg 82%
    05:00 +21°C° 0 mm 1 m/S 761 mmHg 83%
    06:00 +21°C° 0 mm 1 m/S 761 mmHg 84%
    07:00 +22°C° 0 mm 1 m/S 762 mmHg 77%
    08:00 +24°C° 0 mm 2 m/S 762 mmHg 70%
    09:00 +25°C° 0 mm 2 m/S 762 mmHg 63%
    10:00 +27°C° 0 mm 2 m/S 762 mmHg 59%
    11:00 +28°C° 0 mm 3 m/S 762 mmHg 55%
    12:00 +29°C° 0 mm 4 m/S 761 mmHg 51%
    13:00 +29°C° 0 mm 4 m/S 761 mmHg 52%
    14:00 +29°C° 0 mm 5 m/S 760 mmHg 54%
    15:00 +29°C° 0 mm 5 m/S 760 mmHg 55%
    16:00 +28°C° 0 mm 5 m/S 760 mmHg 62%
    17:00 +26°C° 0 mm 4 m/S 760 mmHg 69%
    18:00 +25°C° 0 mm 4 m/S 760 mmHg 77%
    19:00 +23°C° 0 mm 4 m/S 760 mmHg 79%
    20:00 +23°C° 0 mm 4 m/S 761 mmHg 82%
    21:00 +22°C° 0 mm 3 m/S 761 mmHg 85%
    22:00 +22°C° 0 mm 4 m/S 761 mmHg 85%
    23:00 +22°C° 0 mm 4 m/S 761 mmHg 84%

    6 April, Montag

    Zeit Temperatur Niederschläge Wind Luftdruck Luftfeuchtigkeit
    00:00 +23°C° 0 mm 4 m/S 761 mmHg 84%
    01:00 +22°C° 0 mm 4 m/S 761 mmHg 85%
    02:00 +22°C° 0 mm 4 m/S 761 mmHg 86%
    03:00 +22°C° 0 mm 4 m/S 761 mmHg 87%
    04:00 +22°C° 0 mm 4 m/S 761 mmHg 88%
    05:00 +21°C° 0 mm 3 m/S 761 mmHg 89%
    06:00 +21°C° 0 mm 3 m/S 761 mmHg 90%
    07:00 +22°C° 0 mm 3 m/S 761 mmHg 83%
    08:00 +25°C° 0 mm 4 m/S 761 mmHg 77%
    09:00 +26°C° 0 mm 4 m/S 761 mmHg 70%
    10:00 +27°C° 0 mm 4 m/S 760 mmHg 66%
    11:00 +28°C° 0 mm 4 m/S 760 mmHg 63%
    12:00 +29°C° 0 mm 4 m/S 760 mmHg 59%
    13:00 +29°C° 0 mm 4 m/S 760 mmHg 62%
    14:00 +28°C° 0 mm 3 m/S 759 mmHg 66%
    15:00 +28°C° 0 mm 3 m/S 759 mmHg 69%
    16:00 +27°C° 0.1 mm 3 m/S 759 mmHg 73%
    17:00 +26°C° 0.1 mm 2 m/S 760 mmHg 76%
    18:00 +26°C° 0.1 mm 2 m/S 760 mmHg 80%
    19:00 +25°C° 0.1 mm 2 m/S 760 mmHg 81%
    20:00 +25°C° 0.1 mm 1 m/S 760 mmHg 82%
    21:00 +24°C° 0.1 mm 1 m/S 761 mmHg 83%
    22:00 +24°C° 0 mm 2 m/S 761 mmHg 82%
    23:00 +24°C° 0 mm 2 m/S 761 mmHg 82%

    7 April, Dienstag

    Zeit Temperatur Niederschläge Wind Luftdruck Luftfeuchtigkeit
    00:00 +24°C° 0 mm 3 m/S 761 mmHg 81%
    01:00 +22°C° 0.1 mm 4 m/S 761 mmHg 83%
    02:00 +22°C° 0.1 mm 5 m/S 761 mmHg 85%
    03:00 +21°C° 0.1 mm 6 m/S 761 mmHg 87%
    04:00 +21°C° 0 mm 6 m/S 761 mmHg 86%
    05:00 +21°C° 0 mm 6 m/S 761 mmHg 86%
    06:00 +20°C° 0 mm 6 m/S 762 mmHg 85%
    07:00 +21°C° 0 mm 6 m/S 762 mmHg 79%
    08:00 +22°C° 0 mm 6 m/S 763 mmHg 73%
    09:00 +22°C° 0 mm 6 m/S 763 mmHg 67%
    10:00 +23°C° 0 mm 6 m/S 763 mmHg 63%
    11:00 +24°C° 0 mm 6 m/S 763 mmHg 59%
    12:00 +24°C° 0 mm 6 m/S 764 mmHg 56%
    13:00 +24°C° 0 mm 6 m/S 763 mmHg 57%
    14:00 +23°C° 0 mm 6 m/S 763 mmHg 58%
    15:00 +23°C° 0 mm 7 m/S 763 mmHg 59%
    16:00 +22°C° 0 mm 7 m/S 763 mmHg 62%
    17:00 +21°C° 0 mm 6 m/S 763 mmHg 64%
    18:00 +20°C° 0 mm 6 m/S 763 mmHg 67%
    19:00 +19°C° 0 mm 6 m/S 764 mmHg 69%
    20:00 +19°C° 0 mm 5 m/S 764 mmHg 71%
    21:00 +17°C° 0 mm 5 m/S 764 mmHg 72%
    22:00 +17°C° 0 mm 4 m/S 764 mmHg 72%
    23:00 +17°C° 0 mm 4 m/S 765 mmHg 72%

    8 April, Mittwoch

    Zeit Temperatur Niederschläge Wind Luftdruck Luftfeuchtigkeit
    00:00 +17°C° 0 mm 3 m/S 765 mmHg 72%
    01:00 +17°C° 0 mm 3 m/S 764 mmHg 71%
    02:00 +17°C° 0 mm 3 m/S 764 mmHg 70%
    03:00 +17°C° 0 mm 3 m/S 764 mmHg 69%
    04:00 +17°C° 0 mm 3 m/S 764 mmHg 69%
    05:00 +17°C° 0 mm 3 m/S 764 mmHg 68%
    06:00 +16°C° 0 mm 3 m/S 764 mmHg 68%
    07:00 +18°C° 0 mm 2 m/S 764 mmHg 62%
    08:00 +19°C° 0 mm 2 m/S 764 mmHg 56%
    09:00 +21°C° 0 mm 2 m/S 764 mmHg 50%
    10:00 +23°C° 0 mm 2 m/S 764 mmHg 47%
    11:00 +24°C° 0 mm 3 m/S 764 mmHg 43%
    12:00 +26°C° 0 mm 3 m/S 764 mmHg 39%
    13:00 +26°C° 0 mm 4 m/S 764 mmHg 43%
    14:00 +25°C° 0 mm 5 m/S 763 mmHg 46%
    15:00 +25°C° 0 mm 5 m/S 763 mmHg 50%
    16:00 +23°C° 0 mm 5 m/S 763 mmHg 57%
    17:00 +22°C° 0 mm 5 m/S 763 mmHg 64%
    18:00 +21°C° 0 mm 5 m/S 763 mmHg 71%
    19:00 +20°C° 0 mm 5 m/S 763 mmHg 75%
    20:00 +19°C° 0 mm 5 m/S 763 mmHg 79%
    21:00 +18°C° 0 mm 4 m/S 764 mmHg 84%
    22:00 +18°C° 0.1 mm 4 m/S 764 mmHg 84%
    23:00 +17°C° 0.1 mm 4 m/S 764 mmHg 85%
    Mehr zeigen